Showing default

GALILEO 14 (26B), 41549

Orbit data source: Space-Track

GALILEO 14 (26B), 41549 is a payload satellite owned by GNSS Agency (ESA) that was launched on Tue, 24 May 2016 UTC via a SOYUZ-ST-B launch vehicle from the French Guiana (FRGUI). Payload-class satellites include a variety of spacecraft equipped with specific instruments for various scientific and technological missions. These include communications satellites like Starlink; space stations such as the ISS; scientific satellites like the Hubble; Earth observation satellites from companies like Planet Labs, Umbra, and HawkEye 360; GPS; miniature CubeSats for education and research; and military/defense satellites.

Loading next visibility...
Identifier
41549, 2016-030A
Orbit
Active
Country
Flag of ESAESA
Related business
Manufacturer
OHB
Mission
Operational Civil Navigation
Bus & Motor
GALILEOSAT, AOCS
Mass
733 kg wet, 660 kg dry
Launch date (UTC)
2016-05-24 (9 years ago)
Launch vehicle
SOYUZ-ST-B
Launch site
French Guiana (FRGUI)
Object type
Payload
Rocket body
Debris
Shape & HBR
Box + 2 Pan, 7.4 m
Radar Cross Section
9.223 m², Large (>1 m²)

Expand to show TLE details & history
Last TLE update: 2 days ago

TLE from 2 days ago
0 GALILEO 14 (26B)
1 41549U 16030A   25258.86112477  .00000019  00000-0  00000-0 0  9991
2 41549  55.1867 229.2381 0003393 324.5831  35.3663  1.70473086 57990
Epoch: 2025-09-15T20:40Z
TLE epoch observation values (Epoch: 2025-09-15T20:40:01.18Z)
Latitude
0.00004°
Longitude
-75.83335°
Altitude
23,214.377 km
Speed
3.671 km/s
True Right ascension
15h 16m 55s
True Declination
0° 00' 00"
Sunlit
Object was in daylight at epoch
Visualization orbit readout
Latitude
Unknown
Longitude
Unknown
Altitude
Unknown
Speed
Unknown
Apparent Right ascension
Unknown
Apparent Declination
Unknown
Sunlit
N/A
Visualization observer readout
Local Sidereal Time
21:55:49
Azimuth
Unknown
Elevation
Unknown
Doppler factor
Unknown
Orbital elements
Apogee altitude
23,232.334 km
Perigee altitude
23,212.247 km
Semi-major axis
29,600.427 km
Eccentricity
0.00034
Inclination
55.1867°
RAAN
229.2381°
Arg. of periapsis
324.5831°
True anomaly
35.38881°
Mean anomaly
35.3663°
Eccentric anomaly
35.37756°
Mean motion
0.42618 °/min
Orbital period
844.71 mins
BSTAR
0
Loading maneuver chart data...
Computing Atmospheric mass density...
Loading historical data...
Loading historical data...
Loading historical data...
Loading historical data...
Loading historical data...
Loading historical data...
Loading historical data...
Other satellites on launch #30 in the year 2016 (2016-05-24 UTC)

Documentation

Showing up to 5 results
|